Regional Weather Roundup
Issued by NWS Goodland, KS

Home | Current Version | Previous Version | Graphics & Text | Print | Product List | Glossary On
Versions: 1 2 3 4 5 6 7 8 9 10 11 12 13 14 15 16 17 18 19 20 21 22 23 24 25 26 27 28 29 30 31 32 33 34 35 36 37 38 39 40 41 42 43 44 45 46 47 48 49 50
000
ASUS43 KGLD 021408
RWRGLD

GOODLAND FORECAST AREA HOURLY WEATHER ROUNDUP
NATIONAL WEATHER SERVICE GOODLAND KS
800 AM MDT MON MAY 02 2016

...OFFICIAL OBSERVATIONS...

CITY           SKY/WX    TMP DP  RH WIND       PRES   REMARKS
GOODLAND KS    SUNNY     41  32  70 W9        30.23S
HILL CITY KS   SUNNY     48  37  65 NW12      30.21S
IMPERIAL NEB   SUNNY     39  31  72 NW9       30.22S
MCCOOK NEB     SUNNY     42  34  73 W7        30.22R
AKRON CO       SUNNY     33  28  81 W14       30.24S
BURLINGTON CO  SUNNY     39  31  72 W8        30.25R
LIMON CO       CLOUDY    28  24  85 NW6       30.27R
$$

...UNOFFICIAL OBSERVATIONS...

CITY           SKY/WX    TMP DP  RH WIND       PRES   REMARKS
COLBY KS       SUNNY     46  39  76 W6        30.24S
LENORA KS        N/A     44  32  63 MISG        N/A
NORTON KS      SUNNY     45  36  70 W10       30.20R
SHARON SPRINGS   N/A     40  35  82 NW9         N/A
TRIBUNE KS     SUNNY     43  34  70 NW10      30.26S
KIT CARSON CO    N/A     41  35  77 MISG        N/A
YUMA CO          N/A     37  33  85 W12         N/A
$$




USA.gov is the U.S. government's official web portal to all federal, state and local government web resources and services.